This is the latest recevied weather packets stored in our database for station/object KC8ZBC. If no packets are shown the sender has not sent any weather packets the latest 10 day(s).
| Time | Temp. | Humidity | Pressure | Rain* | Wind** | Luminosity | Snow |
|---|---|---|---|---|---|---|---|
| 1778076172 | 6.11° C | 66% | 987.2 hPa | 0 mm | - | 483 W/m² | - |
| 1778075869 | 6.67° C | 66% | 987.4 hPa | 0 mm | - | 511 W/m² | - |
| 1778075565 | 6.11° C | 66% | 987.2 hPa | 0 mm | - | 465 W/m² | - |
| 1778075262 | 6.11° C | 66% | 987.2 hPa | 0 mm | - | 481 W/m² | - |
| 1778074959 | 6.11° C | 66% | 987.1 hPa | 0 mm | - | 431 W/m² | - |
| 1778074656 | 6.11° C | 67% | 987.2 hPa | 0 mm | - | 475 W/m² | - |
| 1778074352 | 6.11° C | 67% | 987.2 hPa | 0 mm | - | 365 W/m² | - |
| 1778074049 | 6.67° C | 65% | 986.6 hPa | 0 mm | - | 247 W/m² | - |
| 1778073746 | 6.11° C | 67% | 986.8 hPa | 0 mm | - | 269 W/m² | - |
| 1778073444 | 5.56° C | 67% | 987 hPa | 0 mm | - | 306 W/m² | - |
| 1778073140 | 6.11° C | 67% | 987 hPa | 0 mm | - | 254 W/m² | - |
| 1778072837 | 6.11° C | 66% | 986.9 hPa | 0 mm | - | 269 W/m² | - |
| 1778072534 | 5.56° C | 67% | 986.9 hPa | 0 mm | - | 243 W/m² | - |
| 1778072232 | 6.11° C | 68% | 986.6 hPa | 0 mm | - | 225 W/m² | - |
| 1778071930 | 5.56° C | 69% | 986.7 hPa | 0 mm | - | 160 W/m² | - |
| 1778071628 | 5.56° C | 70% | 986.5 hPa | 0 mm | - | 186 W/m² | - |
| 1778071326 | 5.56° C | 71% | 986.5 hPa | 0 mm | - | 196 W/m² | - |
| 1778071022 | 5.56° C | 72% | 986.5 hPa | 0 mm | - | 170 W/m² | - |
| 1778070721 | 5.56° C | 70% | 986.4 hPa | 0 mm | - | 164 W/m² | - |
| 1778070417 | 5° C | 72% | 986.5 hPa | 0 mm | - | 99 W/m² | - |
| 1778070115 | 5° C | 73% | 986.1 hPa | 0 mm | - | 34 W/m² | - |
| 1778069813 | 5° C | 75% | 986.5 hPa | 0 mm | - | 34 W/m² | - |
| 1778069509 | 5° C | 76% | 986.2 hPa | 0 mm | - | 33 W/m² | - |
| 1778069207 | 5° C | 76% | 985.9 hPa | 0 mm | - | 23 W/m² | - |
| 1778068904 | 5.56° C | 75% | 986 hPa | 0 mm | - | 34 W/m² | - |
* Rain latest hour (hover to see other rain measurements)
** Current wind speed in m/s (hover to see current wind gust speed)